| time (UTC) | temp C | wind direction | speed KPH | gust KPH | rain 1hr cm | rain 24hr cm | rain mn cm | humidity % | barometer mb |
| 20260507052659 | 10 | 93 | 3.2 | 4.8 | 0.00 | 0.03 | 0.03 | 99 | 1009.3 |
| 20260507052155 | 10 | 359 | 9.7 | 16.1 | 0.00 | 0.03 | 0.03 | 99 | 1008.9 |
| 20260507051653 | 11 | 16 | 8.0 | 14.5 | 0.00 | 0.03 | 0.03 | 99 | 1009.3 |
| 20260507051150 | 11 | 167 | 0.0 | 1.6 | 0.00 | 0.03 | 0.03 | 99 | 1008.4 |
| 20260507050647 | 11 | 4 | 3.2 | 4.8 | 0.00 | 0.03 | 0.03 | 99 | 1008.3 |
| 20260507050143 | 11 | 144 | 1.6 | 3.2 | 0.00 | 0.03 | 0.03 | 99 | 1008.5 |
| 20260507045640 | 10 | 76 | 3.2 | 4.8 | 0.00 | 0.03 | 0.03 | 99 | 1008.3 |
| 20260507045137 | 10 | 170 | 1.6 | 1.6 | 0.00 | 0.03 | 0.03 | 99 | 1008.3 |
| 20260507044634 | 10 | 148 | 0.0 | 1.6 | 0.00 | 0.03 | 0.03 | 99 | 1008.2 |
| 20260507044131 | 10 | 150 | 0.0 | 1.6 | 0.00 | 0.03 | 0.03 | 99 | 1008.1 |
| 20260507043627 | 10 | 146 | 1.6 | 1.6 | 0.00 | 0.03 | 0.03 | 99 | 1008.2 |
| 20260507043124 | 10 | 145 | 0.0 | 1.6 | 0.00 | 0.03 | 0.03 | 99 | 1008.4 |
| 20260507042620 | 10 | 163 | 0.0 | 0.0 | 0.00 | 0.03 | 0.03 | 99 | 1008.3 |
| 20260507042115 | 9 | 140 | 1.6 | 3.2 | 0.00 | 0.03 | 0.03 | 99 | 1008.4 |
| 20260507041612 | 9 | 118 | 1.6 | 3.2 | 0.00 | 0.03 | 0.03 | 99 | 1008.2 |
| 20260507041109 | 8 | 114 | 1.6 | 3.2 | 0.00 | 0.03 | 0.03 | 99 | 1008.3 |
| 20260507040606 | 8 | 148 | 0.0 | 1.6 | 0.00 | 0.03 | 0.03 | 99 | 1008.3 |
| 20260507035558 | 8 | 130 | 1.6 | 3.2 | 0.00 | 0.03 | 0.03 | 99 | 1008.1 |
| 20260507035055 | 8 | 130 | 1.6 | 1.6 | 0.00 | 0.03 | 0.03 | 99 | 1008.2 |
| 20260507034551 | 8 | 139 | 1.6 | 1.6 | 0.00 | 0.03 | 0.03 | 99 | 1008.4 |
| 20260507034050 | 8 | 144 | 0.0 | 1.6 | 0.00 | 0.03 | 0.03 | 99 | 1008.5 |
| 20260507033547 | 8 | 125 | 1.6 | 1.6 | 0.00 | 0.03 | 0.03 | 99 | 1008.7 |
| 20260507033044 | 8 | 149 | 0.0 | 0.0 | 0.00 | 0.03 | 0.03 | 99 | 1008.7 |
| 20260507032541 | 8 | 149 | 0.0 | 0.0 | 0.00 | 0.03 | 0.03 | 99 | 1008.5 |
| 20260507032037 | 7 | 149 | 0.0 | 0.0 | 0.00 | 0.03 | 0.03 | 99 | 1008.3 |
| 20260507031534 | 7 | 149 | 0.0 | 0.0 | 0.00 | 0.03 | 0.03 | 99 | 1008.3 |
| 20260507031031 | 7 | 149 | 0.0 | 0.0 | 0.00 | 0.03 | 0.03 | 99 | 1008.3 |
| 20260507030527 | 7 | 149 | 0.0 | 0.0 | 0.00 | 0.03 | 0.03 | 99 | 1008.4 |
| 20260507030026 | 7 | 148 | 0.0 | 0.0 | 0.00 | 0.03 | 0.03 | 99 | 1008.3 |
| 20260507025522 | 7 | 148 | 0.0 | 0.0 | 0.00 | 0.03 | 0.03 | 99 | 1008.2 |
| 20260507025020 | 7 | 148 | 0.0 | 0.0 | 0.00 | 0.03 | 0.03 | 99 | 1008.3 |
| 20260507024517 | 7 | 148 | 0.0 | 1.6 | 0.00 | 0.03 | 0.03 | 99 | 1008.3 |
| 20260507024014 | 7 | 89 | 3.2 | 3.2 | 0.00 | 0.03 | 0.03 | 99 | 1008.3 |
| 20260507023510 | 7 | 144 | 1.6 | 1.6 | 0.00 | 0.03 | 0.03 | 99 | 1008.4 |
| 20260507023008 | 7 | 146 | 0.0 | 0.0 | 0.00 | 0.03 | 0.03 | 99 | 1008.5 |
| 20260507022504 | 7 | 146 | 0.0 | 0.0 | 0.00 | 0.03 | 0.03 | 99 | 1008.4 |
| 20260507021959 | 7 | 146 | 0.0 | 0.0 | 0.00 | 0.03 | 0.03 | 99 | 1008.4 |
| 20260507021455 | 7 | 145 | 0.0 | 0.0 | 0.00 | 0.03 | 0.03 | 99 | 1008.4 |
| 20260507020953 | 7 | 109 | 1.6 | 3.2 | 0.00 | 0.03 | 0.03 | 99 | 1008.4 |
| 20260507020449 | 7 | 148 | 0.0 | 1.6 | 0.00 | 0.03 | 0.03 | 99 | 1008.5 |
| 20260507015946 | 7 | 126 | 1.6 | 1.6 | 0.00 | 0.03 | 0.03 | 99 | 1008.5 |
| 20260507015445 | 7 | 128 | 1.6 | 1.6 | 0.00 | 0.03 | 0.03 | 99 | 1008.6 |
| 20260507014942 | 7 | 143 | 0.0 | 0.0 | 0.18 | 0.03 | 0.03 | 99 | 1009.0 |
| 20260507014438 | 7 | 121 | 1.6 | 1.6 | 0.18 | 0.03 | 0.03 | 99 | 1008.7 |
| 20260507013934 | 7 | 146 | 0.0 | 1.6 | 0.00 | 0.00 | 0.00 | 99 | 1008.7 |
| 20260507013431 | 7 | 146 | 0.0 | 0.0 | 0.00 | 0.00 | 0.00 | 99 | 1008.7 |
| 20260507012929 | 7 | 146 | 0.0 | 0.0 | 0.00 | 0.00 | 0.00 | 99 | 1008.4 |
| 20260507012425 | 7 | 146 | 0.0 | 0.0 | 0.00 | 0.00 | 0.00 | 99 | 1008.6 |
| 20260507011922 | 7 | 144 | 0.0 | 0.0 | 0.00 | 0.00 | 0.00 | 99 | 1008.5 |
| 20260507011420 | 7 | 144 | 0.0 | 0.0 | 0.00 | 0.00 | 0.00 | 99 | 1008.4 |
| 20260507010919 | 7 | 144 | 0.0 | 0.0 | 0.00 | 0.00 | 0.00 | 99 | 1008.4 |
| 20260507010414 | 7 | 144 | 0.0 | 0.0 | 0.00 | 0.00 | 0.00 | 99 | 1008.5 |
| 20260507005912 | 7 | 142 | 0.0 | 1.6 | 0.00 | 0.00 | 0.00 | 99 | 1008.4 |
| 20260507005409 | 7 | 144 | 0.0 | 0.0 | 0.00 | 0.00 | 0.00 | 99 | 1008.4 |
| 20260507004905 | 7 | 148 | 0.0 | 0.0 | 0.00 | 0.00 | 0.00 | 99 | 1008.5 |
| 20260507004402 | 8 | 148 | 0.0 | 0.0 | 0.00 | 0.00 | 0.00 | 99 | 1008.4 |
| 20260507003859 | 8 | 148 | 0.0 | 0.0 | 0.00 | 0.00 | 0.00 | 99 | 1008.4 |
| 20260507003355 | 8 | 148 | 0.0 | 0.0 | 0.00 | 0.00 | 0.00 | 99 | 1008.5 |
| 20260507002850 | 8 | 148 | 0.0 | 0.0 | 0.00 | 0.00 | 0.00 | 99 | 1008.4 |
| 20260507002347 | 8 | 148 | 0.0 | 0.0 | 0.00 | 0.00 | 0.00 | 99 | 1008.3 |
| 20260507001844 | 8 | 148 | 1.6 | 1.6 | 0.00 | 0.00 | 0.00 | 99 | 1008.3 |
| 20260507001340 | 8 | 149 | 0.0 | 0.0 | 0.00 | 0.00 | 0.00 | 99 | 1008.5 |
| 20260507000837 | 8 | 149 | 0.0 | 0.0 | 0.00 | 0.00 | 0.00 | 99 | 1008.6 |
| 20260507000332 | 8 | 149 | 0.0 | 0.0 | 0.00 | 0.00 | 0.00 | 99 | 1008.3 |
| 20260506235829 | 8 | 148 | 0.0 | 0.0 | 0.00 | 0.00 | 0.00 | 99 | 1008.6 |
| 20260506235326 | 8 | 137 | 1.6 | 1.6 | 0.00 | 0.00 | 0.00 | 99 | 1008.6 |
| 20260506234822 | 8 | 149 | 0.0 | 0.0 | 0.00 | 0.00 | 0.00 | 98 | 1008.7 |
| 20260506234320 | 8 | 149 | 0.0 | 0.0 | 0.00 | 0.00 | 0.00 | 98 | 1008.6 |
| 20260506233817 | 8 | 149 | 0.0 | 0.0 | 0.00 | 0.00 | 0.00 | 98 | 1008.7 |
| 20260506233313 | 8 | 148 | 0.0 | 0.0 | 0.00 | 0.00 | 0.00 | 98 | 1008.4 |
| 20260506232810 | 8 | 149 | 0.0 | 0.0 | 0.00 | 0.00 | 0.00 | 98 | 1008.4 |
| 20260506232306 | 8 | 148 | 0.0 | 1.6 | 0.00 | 0.00 | 0.00 | 98 | 1008.5 |
| 20260506231802 | 8 | 149 | 0.0 | 1.6 | 0.00 | 0.00 | 0.00 | 98 | 1008.6 |
| 20260506231301 | 8 | 150 | 0.0 | 0.0 | 0.00 | 0.00 | 0.00 | 98 | 1008.6 |
| 20260506230758 | 9 | 149 | 0.0 | 0.0 | 0.00 | 0.00 | 0.00 | 98 | 1008.5 |
| 20260506230255 | 9 | 148 | 0.0 | 1.6 | 0.00 | 0.00 | 0.00 | 98 | 1008.4 |
| 20260506225751 | 9 | 155 | 1.6 | 1.6 | 0.00 | 0.00 | 0.00 | 98 | 1008.4 |
| 20260506225248 | 10 | 170 | 0.0 | 0.0 | 0.00 | 0.00 | 0.00 | 98 | 1008.5 |
| 20260506224744 | 10 | 170 | 0.0 | 0.0 | 0.00 | 0.00 | 0.00 | 98 | 1008.6 |
| 20260506224242 | 10 | 171 | 0.0 | 0.0 | 0.00 | 0.00 | 0.00 | 98 | 1008.5 |
| 20260506223738 | 10 | 171 | 0.0 | 0.0 | 0.00 | 0.00 | 0.00 | 98 | 1008.4 |
| 20260506223233 | 10 | 171 | 0.0 | 0.0 | 0.00 | 0.00 | 0.00 | 98 | 1008.8 |
| 20260506222731 | 10 | 172 | 0.0 | 0.0 | 0.00 | 0.00 | 0.00 | 98 | 1008.4 |
| 20260506222226 | 10 | 152 | 0.0 | 0.0 | 0.00 | 0.00 | 0.00 | 98 | 1008.5 |
| 20260506221724 | 10 | 151 | 0.0 | 0.0 | 0.00 | 0.00 | 0.00 | 98 | 1008.3 |
| 20260506221222 | 10 | 157 | 0.0 | 0.0 | 0.00 | 0.00 | 0.00 | 98 | 1008.7 |
| 20260506220719 | 10 | 150 | 0.0 | 0.0 | 0.00 | 0.00 | 0.00 | 98 | 1008.6 |
| 20260506220214 | 10 | 157 | 0.0 | 0.0 | 0.00 | 0.00 | 0.00 | 98 | 1008.7 |
| 20260506215711 | 10 | 157 | 0.0 | 0.0 | 0.00 | 0.00 | 0.00 | 98 | 1008.5 |
| 20260506215206 | 10 | 156 | 1.6 | 1.6 | 0.00 | 0.00 | 0.00 | 98 | 1008.5 |
| 20260506214703 | 10 | 159 | 0.0 | 0.0 | 0.00 | 0.00 | 0.00 | 98 | 1008.6 |
| 20260506214200 | 10 | 155 | 0.0 | 0.0 | 0.00 | 0.00 | 0.00 | 98 | 1008.6 |
| 20260506213659 | 10 | 154 | 0.0 | 0.0 | 0.00 | 0.00 | 0.00 | 98 | 1008.5 |
| 20260506213156 | 10 | 153 | 0.0 | 1.6 | 0.00 | 0.00 | 0.00 | 98 | 1008.5 |
| 20260506212653 | 10 | 155 | 0.0 | 0.0 | 0.00 | 0.00 | 0.00 | 98 | 1008.6 |
| 20260506212148 | 11 | 159 | 0.0 | 0.0 | 0.00 | 0.00 | 0.00 | 98 | 1008.6 |
| 20260506211643 | 11 | 169 | 0.0 | 0.0 | 0.00 | 0.00 | 0.00 | 97 | 1008.6 |
| 20260506211140 | 11 | 169 | 0.0 | 0.0 | 0.00 | 0.00 | 0.00 | 97 | 1008.5 |
| 20260506210637 | 11 | 169 | 0.0 | 0.0 | 0.00 | 0.00 | 0.00 | 97 | 1008.5 |
| 20260506210135 | 11 | 165 | 0.0 | 1.6 | 0.00 | 0.00 | 0.00 | 97 | 1008.3 |
| 20260506205632 | 11 | 161 | 0.0 | 0.0 | 0.00 | 0.25 | 0.25 | 97 | 1008.2 |
| 20260506205132 | 11 | 163 | 0.0 | 0.0 | 0.00 | 0.25 | 0.25 | 97 | 1008.2 |
| 20260506204630 | 11 | 166 | 0.0 | 0.0 | 0.00 | 0.25 | 0.25 | 97 | 1008.1 |
| 20260506204127 | 11 | 165 | 0.0 | 0.0 | 0.00 | 0.25 | 0.25 | 97 | 1008.1 |
| 20260506203625 | 11 | 168 | 0.0 | 1.6 | 0.00 | 0.25 | 0.25 | 97 | 1008.1 |
| 20260506203121 | 11 | 166 | 0.0 | 0.0 | 0.00 | 0.25 | 0.25 | 97 | 1008.0 |
| 20260506202619 | 12 | 152 | 0.0 | 0.0 | 0.00 | 0.25 | 0.25 | 97 | 1007.9 |
| 20260506202115 | 12 | 168 | 0.0 | 1.6 | 0.00 | 0.25 | 0.25 | 97 | 1008.0 |
| 20260506201612 | 12 | 189 | 1.6 | 1.6 | 0.00 | 0.25 | 0.25 | 97 | 1007.9 |
| 20260506201109 | 12 | 165 | 0.0 | 1.6 | 0.00 | 0.25 | 0.25 | 97 | 1007.8 |
| 20260506200605 | 12 | 161 | 0.0 | 1.6 | 0.00 | 0.25 | 0.25 | 97 | 1008.0 |
| 20260506195559 | 12 | 153 | 0.0 | 1.6 | 0.00 | 0.25 | 0.25 | 96 | 1008.0 |
| 20260506195055 | 12 | 165 | 0.0 | 0.0 | 0.00 | 0.25 | 0.25 | 96 | 1008.0 |
| 20260506194553 | 12 | 173 | 0.0 | 0.0 | 0.00 | 0.25 | 0.25 | 96 | 1007.8 |
| 20260506194049 | 12 | 183 | 0.0 | 1.6 | 0.00 | 0.25 | 0.25 | 96 | 1008.0 |
| 20260506193547 | 13 | 163 | 0.0 | 0.0 | 0.00 | 0.25 | 0.25 | 96 | 1007.6 |
| 20260506193044 | 13 | 176 | 0.0 | 0.0 | 0.00 | 0.25 | 0.25 | 96 | 1007.6 |
| 20260506192541 | 13 | 158 | 0.0 | 0.0 | 0.00 | 0.25 | 0.25 | 96 | 1007.6 |
| 20260506192036 | 13 | 181 | 0.0 | 1.6 | 0.00 | 0.25 | 0.25 | 96 | 1007.6 |
| 20260506191534 | 13 | 152 | 0.0 | 0.0 | 0.00 | 0.25 | 0.25 | 95 | 1007.6 |
| 20260506191029 | 13 | 154 | 0.0 | 0.0 | 0.00 | 0.25 | 0.25 | 95 | 1007.4 |
| 20260506190527 | 13 | 163 | 0.0 | 0.0 | 0.00 | 0.25 | 0.25 | 95 | 1007.6 |
| 20260506190024 | 13 | 163 | 0.0 | 0.0 | 0.00 | 0.25 | 0.25 | 95 | 1007.4 |
| 20260506185521 | 14 | 164 | 0.0 | 0.0 | 0.00 | 0.25 | 0.25 | 94 | 1007.6 |
| 20260506185017 | 14 | 164 | 0.0 | 0.0 | 0.00 | 0.25 | 0.25 | 94 | 1007.4 |
| 20260506184515 | 14 | 174 | 0.0 | 0.0 | 0.00 | 0.25 | 0.25 | 94 | 1007.4 |
| 20260506184012 | 15 | 220 | 1.6 | 3.2 | 0.00 | 0.25 | 0.25 | 93 | 1007.4 |
| 20260506183507 | 15 | 157 | 0.0 | 0.0 | 0.00 | 0.25 | 0.25 | 93 | 1007.1 |
| 20260506183005 | 15 | 149 | 0.0 | 1.6 | 0.00 | 0.25 | 0.25 | 93 | 1007.1 |
| 20260506182502 | 15 | 241 | 3.2 | 6.4 | 0.00 | 0.25 | 0.25 | 93 | 1007.2 |
| 20260506181959 | 15 | 14 | 6.4 | 6.4 | 0.00 | 0.25 | 0.25 | 94 | 1007.0 |
| 20260506181457 | 15 | 198 | 1.6 | 6.4 | 0.00 | 0.25 | 0.25 | 94 | 1007.0 |
| 20260506180953 | 15 | 12 | 4.8 | 9.7 | 0.00 | 0.25 | 0.25 | 94 | 1006.9 |
| 20260506180450 | 15 | 147 | 0.0 | 3.2 | 0.00 | 0.25 | 0.25 | 94 | 1006.9 |
| 20260506175946 | 15 | 89 | 3.2 | 3.2 | 0.00 | 0.25 | 0.25 | 93 | 1006.6 |
| 20260506175443 | 15 | 171 | 0.0 | 1.6 | 0.00 | 0.25 | 0.25 | 92 | 1006.5 |
| 20260506174940 | 15 | 58 | 3.2 | 9.7 | 0.89 | 0.25 | 0.25 | 90 | 1006.6 |
| 20260506174438 | 16 | 98 | 3.2 | 3.2 | 1.50 | 0.25 | 0.25 | 84 | 1006.4 |
| 20260506173934 | 17 | 305 | 4.8 | 6.4 | 0.43 | 0.08 | 0.08 | 75 | 1006.9 |
| 20260506173432 | 17 | 200 | 3.2 | 4.8 | 0.00 | 0.00 | 0.00 | 72 | 1006.2 |
| 20260506172929 | 18 | 108 | 1.6 | 3.2 | 0.00 | 0.00 | 0.00 | 71 | 1006.2 |
| 20260506172426 | 18 | 156 | 0.0 | 1.6 | 0.00 | 0.00 | 0.00 | 70 | 1005.9 |
| 20260506171922 | 18 | 144 | 1.6 | 1.6 | 0.00 | 0.00 | 0.00 | 69 | 1006.0 |
| 20260506171420 | 18 | 170 | 0.0 | 1.6 | 0.00 | 0.00 | 0.00 | 68 | 1005.9 |
| 20260506170918 | 18 | 100 | 3.2 | 3.2 | 0.00 | 0.00 | 0.00 | 68 | 1006.1 |
| 20260506170414 | 18 | 120 | 1.6 | 3.2 | 0.00 | 0.00 | 0.00 | 68 | 1006.0 |
| 20260506165913 | 18 | 139 | 1.6 | 1.6 | 0.00 | 0.00 | 0.00 | 67 | 1006.1 |
| 20260506165410 | 19 | 157 | 0.0 | 0.0 | 0.00 | 0.00 | 0.00 | 65 | 1005.9 |
| 20260506164906 | 20 | 157 | 0.0 | 0.0 | 0.00 | 0.00 | 0.00 | 64 | 1005.9 |
| 20260506164403 | 20 | 158 | 0.0 | 0.0 | 0.00 | 0.00 | 0.00 | 62 | 1005.9 |
| 20260506163901 | 20 | 158 | 0.0 | 0.0 | 0.00 | 0.00 | 0.00 | 62 | 1005.9 |
| 20260506163355 | 20 | 169 | 0.0 | 1.6 | 0.00 | 0.00 | 0.00 | 61 | 1005.9 |
| 20260506162850 | 21 | 165 | 0.0 | 0.0 | 0.00 | 0.00 | 0.00 | 61 | 1005.9 |
| 20260506162349 | 21 | 155 | 0.0 | 1.6 | 0.00 | 0.00 | 0.00 | 59 | 1005.9 |
| 20260506161846 | 21 | 150 | 1.6 | 1.6 | 0.00 | 0.00 | 0.00 | 59 | 1005.7 |
| 20260506161343 | 21 | 160 | 0.0 | 0.0 | 0.00 | 0.00 | 0.00 | 60 | 1005.8 |
| 20260506160841 | 21 | 135 | 1.6 | 1.6 | 0.00 | 0.00 | 0.00 | 60 | 1005.7 |
| 20260506160337 | 21 | 154 | 0.0 | 3.2 | 0.00 | 0.00 | 0.00 | 59 | 1005.6 |
| 20260506155836 | 21 | 157 | 0.0 | 0.0 | 0.00 | 0.00 | 0.00 | 60 | 1005.7 |
| 20260506155332 | 21 | 130 | 1.6 | 1.6 | 0.00 | 0.00 | 0.00 | 59 | 1005.8 |
| 20260506153444 | 21 | 133 | 1.6 | 1.6 | 0.00 | 0.00 | 0.00 | 55 | 1005.8 |
| 20260506152942 | 21 | 157 | 0.0 | 1.6 | 0.00 | 0.00 | 0.00 | 55 | 1005.8 |
| 20260506152438 | 21 | 143 | 0.0 | 1.6 | 0.00 | 0.00 | 0.00 | 54 | 1006.0 |
| 20260506151937 | 21 | 126 | 0.0 | 3.2 | 0.00 | 0.00 | 0.00 | 55 | 1005.9 |
| 20260506151434 | 21 | 159 | 0.0 | 4.8 | 0.00 | 0.00 | 0.00 | 54 | 1005.8 |
| 20260506150932 | 21 | 161 | 0.0 | 1.6 | 0.00 | 0.00 | 0.00 | 55 | 1005.9 |
| 20260506150427 | 21 | 151 | 1.6 | 1.6 | 0.00 | 0.00 | 0.00 | 55 | 1005.9 |
| 20260506145925 | 21 | 272 | 3.2 | 4.8 | 0.00 | 0.00 | 0.00 | 53 | 1006.0 |
| 20260506145421 | 22 | 176 | 0.0 | 3.2 | 0.00 | 0.00 | 0.00 | 53 | 1005.9 |
| 20260506144918 | 22 | 157 | 0.0 | 6.4 | 0.00 | 0.00 | 0.00 | 52 | 1006.1 |
| 20260506144415 | 22 | 173 | 0.0 | 3.2 | 0.00 | 0.00 | 0.00 | 52 | 1006.0 |
| 20260506143914 | 22 | 160 | 1.6 | 3.2 | 0.00 | 0.00 | 0.00 | 52 | 1006.0 |
| 20260506143410 | 22 | 144 | 3.2 | 6.4 | 0.00 | 0.00 | 0.00 | 52 | 1006.1 |
| 20260506142908 | 22 | 267 | 3.2 | 4.8 | 0.00 | 0.00 | 0.00 | 53 | 1006.1 |
| 20260506142406 | 22 | 31 | 6.4 | 6.4 | 0.00 | 0.00 | 0.00 | 53 | 1006.2 |
| 20260506141904 | 22 | 169 | 1.6 | 4.8 | 0.00 | 0.00 | 0.00 | 55 | 1006.2 |
| 20260506141401 | 22 | 153 | 1.6 | 3.2 | 0.00 | 0.00 | 0.00 | 54 | 1006.3 |
| 20260506140859 | 21 | 159 | 3.2 | 6.4 | 0.00 | 0.00 | 0.00 | 56 | 1006.4 |
| 20260506140356 | 21 | 132 | 3.2 | 4.8 | 0.00 | 0.00 | 0.00 | 56 | 1006.4 |
| 20260506135853 | 20 | 145 | 0.0 | 1.6 | 0.00 | 0.00 | 0.00 | 60 | 1006.6 |
| 20260506135350 | 20 | 107 | 3.2 | 6.4 | 0.00 | 0.00 | 0.00 | 57 | 1006.6 |
| 20260506134846 | 21 | 146 | 3.2 | 4.8 | 0.00 | 0.00 | 0.00 | 57 | 1006.6 |
| 20260506134343 | 21 | 126 | 1.6 | 1.6 | 0.00 | 0.00 | 0.00 | 58 | 1006.7 |
| 20260506133840 | 21 | 156 | 0.0 | 1.6 | 0.00 | 0.00 | 0.00 | 58 | 1006.6 |
| 20260506133336 | 21 | 156 | 1.6 | 4.8 | 0.00 | 0.00 | 0.00 | 57 | 1006.7 |
| 20260506132833 | 21 | 172 | 0.0 | 1.6 | 0.00 | 0.00 | 0.00 | 63 | 1006.6 |
| 20260506132330 | 20 | 135 | 1.6 | 3.2 | 0.00 | 0.00 | 0.00 | 63 | 1006.8 |
| 20260506131828 | 20 | 159 | 0.0 | 6.4 | 0.00 | 0.00 | 0.00 | 60 | 1007.2 |
| 20260506131324 | 21 | 145 | 6.4 | 9.7 | 0.00 | 0.00 | 0.00 | 54 | 1007.1 |
| 20260506130822 | 21 | 177 | 4.8 | 11.3 | 0.00 | 0.00 | 0.00 | 54 | 1007.0 |
| 20260506130318 | 21 | 178 | 3.2 | 9.7 | 0.00 | 0.00 | 0.00 | 52 | 1006.9 |
| 20260506125816 | 21 | 160 | 3.2 | 3.2 | 0.00 | 0.00 | 0.00 | 53 | 1007.0 |
| 20260506125314 | 21 | 157 | 3.2 | 6.4 | 0.00 | 0.00 | 0.00 | 53 | 1007.0 |
| 20260506124812 | 21 | 179 | 1.6 | 4.8 | 0.00 | 0.00 | 0.00 | 52 | 1007.0 |
| 20260506124309 | 21 | 182 | 8.0 | 11.3 | 0.00 | 0.00 | 0.00 | 52 | 1007.2 |
| 20260506123806 | 21 | 157 | 12.9 | 14.5 | 0.00 | 0.00 | 0.00 | 52 | 1007.0 |
| 20260506123305 | 21 | 133 | 3.2 | 4.8 | 0.00 | 0.00 | 0.00 | 53 | 1007.2 |
| 20260506122801 | 21 | 90 | 6.4 | 9.7 | 0.00 | 0.00 | 0.00 | 54 | 1007.2 |
| 20260506122258 | 20 | 84 | 11.3 | 14.5 | 0.00 | 0.00 | 0.00 | 55 | 1007.0 |
| 20260506121756 | 20 | 157 | 1.6 | 4.8 | 0.00 | 0.00 | 0.00 | 56 | 1007.3 |
| 20260506121253 | 20 | 152 | 4.8 | 9.7 | 0.00 | 0.00 | 0.00 | 55 | 1007.5 |
| 20260506120750 | 20 | 141 | 6.4 | 9.7 | 0.00 | 0.00 | 0.00 | 54 | 1007.9 |
| 20260506120248 | 20 | 124 | 3.2 | 9.7 | 0.00 | 0.00 | 0.00 | 53 | 1007.9 |
| 20260506115746 | 21 | 166 | 4.8 | 11.3 | 0.00 | 0.00 | 0.00 | 54 | 1007.9 |
| 20260506115244 | 20 | 164 | 1.6 | 6.4 | 0.00 | 0.00 | 0.00 | 54 | 1007.9 |
| 20260506114741 | 21 | 153 | 6.4 | 9.7 | 0.00 | 0.00 | 0.00 | 53 | 1007.9 |
| 20260506114239 | 20 | 80 | 8.0 | 11.3 | 0.00 | 0.00 | 0.00 | 54 | 1008.0 |
| 20260506113737 | 21 | 65 | 8.0 | 11.3 | 0.00 | 0.00 | 0.00 | 53 | 1008.1 |
| 20260506113234 | 20 | 154 | 1.6 | 6.4 | 0.00 | 0.00 | 0.00 | 54 | 1008.1 |
| 20260506112730 | 20 | 152 | 8.0 | 12.9 | 0.00 | 0.00 | 0.00 | 53 | 1008.0 |
| 20260506112228 | 20 | 165 | 6.4 | 6.4 | 0.00 | 0.00 | 0.00 | 54 | 1008.0 |
| 20260506111725 | 20 | 143 | 3.2 | 14.5 | 0.00 | 0.00 | 0.00 | 54 | 1008.0 |
| 20260506111224 | 21 | 136 | 8.0 | 16.1 | 0.00 | 0.00 | 0.00 | 53 | 1008.0 |
| 20260506110720 | 20 | 138 | 0.0 | 6.4 | 0.00 | 0.00 | 0.00 | 56 | 1008.1 |
| 20260506110218 | 20 | 64 | 4.8 | 6.4 | 0.00 | 0.00 | 0.00 | 56 | 1008.3 |
| 20260506105714 | 20 | 343 | 6.4 | 6.4 | 0.00 | 0.00 | 0.00 | 57 | 1008.3 |
| 20260506105211 | 20 | 111 | 4.8 | 6.4 | 0.00 | 0.00 | 0.00 | 55 | 1008.4 |
| 20260506104709 | 20 | 79 | 3.2 | 4.8 | 0.00 | 0.00 | 0.00 | 57 | 1008.6 |
| 20260506104206 | 20 | 144 | 6.4 | 11.3 | 0.00 | 0.00 | 0.00 | 57 | 1008.5 |
| 20260506103703 | 20 | 147 | 4.8 | 11.3 | 0.00 | 0.00 | 0.00 | 57 | 1008.5 |
| 20260506103200 | 20 | 170 | 4.8 | 9.7 | 0.00 | 0.00 | 0.00 | 56 | 1008.6 |
| 20260506102658 | 20 | 129 | 9.7 | 14.5 | 0.00 | 0.00 | 0.00 | 57 | 1008.8 |
| 20260506102156 | 19 | 70 | 3.2 | 6.4 | 0.00 | 0.00 | 0.00 | 59 | 1008.8 |
| 20260506101652 | 19 | 134 | 6.4 | 12.9 | 0.00 | 0.00 | 0.00 | 59 | 1008.8 |
| 20260506101149 | 18 | 340 | 3.2 | 9.7 | 0.00 | 0.00 | 0.00 | 61 | 1008.9 |
| 20260506100648 | 18 | 62 | 11.3 | 14.5 | 0.00 | 0.00 | 0.00 | 60 | 1008.7 |
| 20260506100145 | 18 | 95 | 6.4 | 11.3 | 0.00 | 0.00 | 0.00 | 60 | 1008.8 |
| 20260506095644 | 18 | 193 | 6.4 | 9.7 | 0.00 | 0.00 | 0.00 | 61 | 1008.8 |
| 20260506095140 | 18 | 143 | 3.2 | 12.9 | 0.00 | 0.00 | 0.00 | 62 | 1009.0 |
| 20260506094637 | 18 | 155 | 8.0 | 9.7 | 0.00 | 0.00 | 0.00 | 61 | 1009.1 |
| 20260506094135 | 17 | 144 | 6.4 | 11.3 | 0.00 | 0.00 | 0.00 | 62 | 1009.0 |
| 20260506093634 | 17 | 56 | 4.8 | 11.3 | 0.00 | 0.00 | 0.00 | 62 | 1009.2 |
| 20260506093130 | 17 | 147 | 6.4 | 9.7 | 0.00 | 0.00 | 0.00 | 63 | 1009.0 |
| 20260506092628 | 17 | 139 | 9.7 | 16.1 | 0.00 | 0.00 | 0.00 | 62 | 1009.2 |
| 20260506092125 | 17 | 123 | 6.4 | 11.3 | 0.00 | 0.00 | 0.00 | 63 | 1009.2 |
| 20260506091623 | 18 | 170 | 6.4 | 16.1 | 0.00 | 0.00 | 0.00 | 62 | 1009.3 |
| 20260506091120 | 18 | 99 | 3.2 | 9.7 | 0.00 | 0.00 | 0.00 | 61 | 1009.2 |
| 20260506090618 | 17 | 61 | 4.8 | 9.7 | 0.00 | 0.00 | 0.00 | 61 | 1009.2 |
| 20260506090114 | 18 | 158 | 1.6 | 4.8 | 0.00 | 0.00 | 0.00 | 62 | 1009.4 |
| 20260506085611 | 17 | 131 | 6.4 | 9.7 | 0.00 | 0.00 | 0.00 | 62 | 1009.3 |
| 20260506085108 | 17 | 102 | 8.0 | 11.3 | 0.00 | 0.00 | 0.00 | 61 | 1009.3 |
| 20260506084604 | 18 | 153 | 3.2 | 9.7 | 0.00 | 0.00 | 0.00 | 60 | 1009.4 |
| 20260506084101 | 17 | 317 | 4.8 | 6.4 | 0.00 | 0.00 | 0.00 | 61 | 1009.4 |
| 20260506083558 | 17 | 150 | 9.7 | 11.3 | 0.00 | 0.00 | 0.00 | 62 | 1009.4 |
| 20260506083055 | 16 | 169 | 3.2 | 12.9 | 0.00 | 0.00 | 0.00 | 64 | 1009.6 |
| 20260506082552 | 16 | 136 | 14.5 | 17.7 | 0.00 | 0.00 | 0.00 | 63 | 1009.3 |
| 20260506082047 | 16 | 141 | 8.0 | 11.3 | 0.00 | 0.00 | 0.00 | 64 | 1009.7 |
| 20260506081546 | 16 | 127 | 19.3 | 24.1 | 0.00 | 0.00 | 0.00 | 65 | 1009.6 |
| 20260506081043 | 16 | 144 | 11.3 | 12.9 | 0.00 | 0.00 | 0.00 | 63 | 1009.7 |
| 20260506080541 | 16 | 103 | 4.8 | 17.7 | 0.00 | 0.00 | 0.00 | 64 | 1009.7 |
| 20260506073524 | 16 | 182 | 1.6 | 16.1 | 0.00 | 0.00 | 0.00 | 62 | 1009.6 |
| 20260506073021 | 16 | 126 | 1.6 | 9.7 | 0.00 | 0.00 | 0.00 | 62 | 1009.7 |
| 20260506072518 | 15 | 145 | 3.2 | 9.7 | 0.00 | 0.00 | 0.00 | 65 | 1009.7 |
| 20260506072016 | 16 | 168 | 6.4 | 12.9 | 0.00 | 0.00 | 0.00 | 63 | 1009.5 |
| 20260506071514 | 15 | 66 | 1.6 | 6.4 | 0.00 | 0.00 | 0.00 | 65 | 1009.6 |
| 20260506071010 | 15 | 23 | 9.7 | 17.7 | 0.00 | 0.00 | 0.00 | 65 | 1009.7 |
| 20260506070508 | 15 | 335 | 11.3 | 16.1 | 0.00 | 0.00 | 0.00 | 65 | 1009.9 |
| 20260506062445 | 14 | 139 | 6.4 | 9.7 | 0.00 | 0.00 | 0.00 | 68 | 1010.1 |
| 20260506061941 | 14 | 149 | 3.2 | 6.4 | 0.00 | 0.00 | 0.00 | 69 | 1010.2 |
| 20260506061437 | 13 | 151 | 3.2 | 4.8 | 0.00 | 0.00 | 0.00 | 71 | 1010.1 |
| 20260506060936 | 13 | 174 | 3.2 | 6.4 | 0.00 | 0.00 | 0.00 | 73 | 1010.4 |
| 20260506060434 | 13 | 133 | 3.2 | 9.7 | 0.00 | 0.00 | 0.00 | 71 | 1010.3 |